Home > Weather > Gurdaspur > Past weeks

Flag for India Weather for the Past 2 Weeks in Gurdaspur, Punjab, India

Now
90 °F

Scattered clouds.


Feels Like: 87 °F
Forecast: 79 / 99 °F
Wind: 12 mph from East

Location: Amritsar Airport

Current Time: May 3, 2016 at 7:12:18 PM

Latest Report: May 3, 2016 at 6:30 PM


Visibility: 1 mi

Pressure: 29.65 "Hg

Humidity: 27%

Dew Point: 52 °F

Location of GurdaspurLocation

Historic Weather in Gurdaspur — Graph

°F

Gurdaspur Temperature Yesterday

Maximum temperature yesterday: 109 °F (at 2:00 PM)
Minimum temperature yesterday: 75 °F (at 3:00 AM)
Average temperature yesterday: 93 °F

High & Low Weather Summary for the Past Weeks

 TemperatureHumidityPressure
High109 °F (May 2, 2:00 PM)78% (Apr 20, 6:30 AM)29.86 "Hg (Apr 20, 6:30 AM)
Low61 °F (Apr 23, 5:30 AM)5% (May 2, 2:00 PM)29.56 "Hg (May 1, 4:30 PM)
Average85 °F30%29.71 "Hg
* Reported Apr 18 5:30 PM — May 3 6:00 PM, Gurdaspur, Weather by CustomWeather, © 2016

Note: Actual official high and low records may vary slightly from our data, if they occured in-between our weather recording intervals... More about our weather records

Advertising

Gurdaspur Weather History for the Previous 24 Hours

Scroll right to see more
 ConditionsComfort  
Time TempWeatherWind HumidityBarometerVisibility
6:00 PM
Tue, May 3
91 °FMore clouds than sun.14 mph26%29.65 "Hg1 mi
5:00 PM95 °FMore clouds than sun.12 mph23%29.65 "Hg1 mi
4:30 PM95 °FBroken clouds.12 mph23%29.65 "Hg1 mi
4:00 PM95 °FMore clouds than sun.8 mph26%29.68 "Hg1 mi
3:30 PM97 °FBroken clouds.6 mph20%29.68 "Hg1 mi
2:30 PM95 °FBroken clouds.2 mph23%29.71 "Hg1 mi
2:00 PM95 °FBroken clouds.6 mph25%29.71 "Hg1 mi
1:30 PM95 °FBroken clouds.7 mph22%29.71 "Hg1 mi
1:00 PM97 °FBroken clouds.5 mph20%29.74 "Hg1 mi
12:30 PM95 °FBroken clouds.7 mph23%29.74 "Hg1 mi
12:00 PM91 °FDrizzle. Mostly cloudy.9 mph28%29.77 "Hg1 mi
11:30 AM91 °FMostly cloudy.9 mph28%29.74 "Hg1 mi
11:00 AM93 °FMore clouds than sun.6 mph23%29.71 "Hg2 mi
10:30 AM93 °FMore clouds than sun.5 mph24%29.71 "Hg1 mi
10:00 AM91 °FMore clouds than sun.7 mph23%29.71 "Hg2 mi
9:00 AM91 °FMore clouds than sun.7 mph24%29.71 "Hg2 mi
8:30 AM91 °FMore clouds than sun.8 mph24%29.71 "Hg1 mi
8:00 AM91 °FMore clouds than sun.7 mph24%29.68 "Hg1 mi
7:00 AM88 °FMore clouds than sun.10 mph27%29.65 "Hg1 mi
6:30 AM88 °FMore clouds than sun.9 mph25%29.65 "Hg1 mi
6:00 AM86 °FMostly cloudy.7 mph27%29.65 "Hg1 mi
5:30 AM86 °FMostly cloudy.No wind29%29.62 "Hg1 mi
5:00 AM86 °FMostly cloudy.No wind31%29.62 "Hg1 mi
4:30 AM84 °FMostly cloudy.3 mph35%29.62 "Hg1 mi
4:00 AM82 °FMostly cloudy.2 mph37%29.59 "Hg1 mi
3:30 AM82 °FMostly cloudy.No wind37%29.62 "Hg1 mi
2:30 AM84 °FMostly cloudy.3 mph33%29.62 "Hg1 mi
2:00 AM86 °FMostly cloudy.3 mph29%29.62 "Hg1 mi
1:30 AM84 °FMostly cloudy.2 mph33%29.62 "Hg1 mi
1:00 AM84 °FMostly cloudy.No wind31%29.62 "Hg1 mi
12:30 AM84 °FMostly cloudy.No wind33%29.62 "Hg1 mi
12:00 AM86 °FMostly cloudy.2 mph31%29.65 "Hg1 mi
11:30 PM
Mon, May 2
88 °FPassing clouds.2 mph25%29.65 "Hg1 mi
11:00 PM88 °FPassing clouds.2 mph27%29.65 "Hg1 mi
10:30 PM91 °FPassing clouds.7 mph23%29.62 "Hg1 mi
10:00 PM91 °FPassing clouds.5 mph24%29.62 "Hg1 mi
9:30 PM95 °FPassing clouds.12 mph19%29.62 "Hg1 mi
9:00 PM95 °FPassing clouds.12 mph19%29.62 "Hg2 mi
8:30 PM97 °FPassing clouds.10 mph16%29.59 "Hg2 mi
8:00 PM90 °FPassing clouds.No wind27%29.56 "Hg2 mi
7:30 PM91 °FScattered clouds.No wind24%29.56 "Hg2 mi
7:00 PM97 °FScattered clouds.No wind14%29.56 "Hg2 mi
Weather by CustomWeather, © 2016

See weather overviewHow to use our weather pages